FW6591 Weather Reports


time (UTC)temp
C
wind
direction
speed
KPH
gust
KPH
rain 1hr
cm
rain 24hr
cm
rain mn
cm
humidity
%
barometer
mb
20260831031558 8 197 3.2 6.4 0.00 0.00 0.00 82 1028.7
20260831030051 8 181 3.2 8.0 0.00 0.00 0.00 81 1028.2
20260831024559 9 202 3.2 8.0 0.00 0.00 0.00 79 1028.3
20260831023050 9 198 1.6 6.4 0.00 0.00 0.00 80 1028.3
20260831021557 9 198 1.6 6.4 0.00 0.00 0.00 79 1028.2
20260831020050 9 185 1.6 4.8 0.00 0.00 0.00 78 1028.1
20260831014557 10 0 1.6 4.8 0.00 0.00 0.00 78 1028.2
20260831013056 10 192 3.2 4.8 0.00 0.00 0.00 79 1028.2
20260831011551 10 190 1.6 3.2 0.00 0.00 0.00 78 1028.6
20260831010130 10 205 0.0 3.2 0.00 0.00 0.00 78 1028.6
20260831004558 10 173 1.6 6.4 0.00 0.00 0.00 78 1028.8
20260831003055 10 193 1.6 6.4 0.00 0.00 0.00 79 1029.0
20260831001607 10 202 4.8 6.4 0.00 0.00 0.00 78 1029.1
20260831000054 10 186 1.6 6.4 0.00 0.00 0.00 78 1029.3
20260830234600 10 181 1.6 6.4 0.00 0.00 0.00 78 1029.3
20260830233045 10 210 0.0 3.2 0.00 0.00 0.00 79 1029.3
20260830231555 10 210 0.0 3.2 0.00 0.00 0.00 78 1029.2
20260830230055 10 0 0.0 0.0 0.00 0.00 0.00 77 1029.1
20260830224606 11 0 0.0 0.0 0.00 0.00 0.00 77 1028.9
20260830223055 11 210 0.0 3.2 0.00 0.00 0.00 76 1029.1
20260830221555 11 210 0.0 3.2 0.00 0.00 0.00 76 1029.3
20260830220124 11 224 1.6 3.2 0.00 0.00 0.00 75 1029.5
20260830214602 11 192 0.0 3.2 0.00 0.00 0.00 75 1029.5
20260830213102 11 0 0.0 4.8 0.00 0.00 0.00 75 1029.7
20260830211549 11 240 1.6 8.0 0.00 0.00 0.00 75 1029.9
20260830204555 11 223 3.2 9.7 0.00 0.00 0.00 75 1030.1
20260830203105 11 219 4.8 8.0 0.00 0.00 0.00 76 1030.2
20260830201551 11 196 3.2 11.3 0.00 0.00 0.00 77 1030.3
20260830200047 11 216 3.2 8.0 0.00 0.00 0.00 76 1030.0
20260830194557 11 223 3.2 6.4 0.00 0.00 0.00 76 1030.0
20260830193050 11 217 3.2 8.0 0.00 0.00 0.00 76 1030.1
20260830191600 11 202 3.2 6.4 0.00 0.00 0.00 76 1029.9
20260830190058 11 233 1.6 6.4 0.00 0.00 0.00 78 1029.6
20260830184553 11 223 3.2 6.4 0.00 0.00 0.00 78 1029.6
20260830183054 11 228 3.2 8.0 0.00 0.00 0.00 78 1029.5
20260830181552 11 227 3.2 8.0 0.00 0.00 0.00 79 1029.4
20260830180108 11 199 4.8 8.0 0.00 0.00 0.00 79 1029.4
20260830174554 11 225 3.2 9.7 0.00 0.00 0.00 80 1029.4
20260830173126 11 202 3.2 8.0 0.00 0.00 0.00 79 1029.3
20260830171603 11 257 3.2 12.9 0.00 0.00 0.00 78 1029.2
20260830170052 11 154 4.8 11.3 0.00 0.00 0.00 78 1029.1
20260830164547 11 216 8.0 12.9 0.00 0.00 0.00 77 1028.8
20260830163100 12 244 4.8 9.7 0.00 0.00 0.00 76 1028.7
20260830161603 12 251 3.2 8.0 0.00 0.00 0.00 74 1028.4
20260830154556 12 201 6.4 11.3 0.00 0.00 0.00 73 1027.9
20260830153052 12 209 4.8 12.9 0.00 0.00 0.00 73 1027.8
20260830151549 12 177 3.2 14.5 0.00 0.00 0.00 72 1027.6
20260830150050 13 236 4.8 9.7 0.00 0.00 0.00 71 1027.3
20260830144557 13 204 4.8 12.9 0.00 0.00 0.00 71 1027.1
20260830143053 13 216 4.8 9.7 0.00 0.00 0.00 70 1026.8
20260830141546 13 226 4.8 9.7 0.00 0.00 0.00 70 1026.7
20260830140056 13 215 3.2 11.3 0.00 0.00 0.00 70 1026.6
20260830134603 13 192 1.6 9.7 0.00 0.00 0.00 69 1026.5
20260830133050 13 323 3.2 9.7 0.00 0.00 0.00 70 1026.6
20260830131610 13 229 3.2 8.0 0.00 0.00 0.00 69 1026.6
20260830130101 13 225 3.2 9.7 0.00 0.00 0.00 69 1026.6
20260830124553 13 196 3.2 9.7 0.00 0.00 0.00 68 1026.5
20260830123052 13 360 3.2 11.3 0.00 0.00 0.00 69 1026.7
20260830121559 13 250 1.6 11.3 0.00 0.00 0.00 70 1026.8
20260830114605 12 216 4.8 9.7 0.00 0.00 0.00 72 1027.1
20260830113050 12 259 1.6 9.7 0.00 0.00 0.00 72 1027.2
20260830111600 12 278 4.8 12.9 0.00 0.00 0.00 72 1027.6
20260830110129 12 267 3.2 12.9 0.00 0.00 0.00 73 1028.1
20260830104600 12 254 4.8 14.5 0.00 0.00 0.00 75 1028.1
20260830103058 11 234 3.2 9.7 0.00 0.00 0.00 77 1028.7
20260830101552 11 265 4.8 11.3 0.00 0.00 0.00 78 1028.7
20260830100055 11 223 6.4 16.1 0.00 0.00 0.00 78 1029.0
20260830094550 11 230 4.8 12.9 0.00 0.00 0.00 80 1028.9
20260830093126 11 265 6.4 14.5 0.00 0.00 0.00 82 1029.0
20260830091558 10 214 4.8 16.1 0.00 0.00 0.00 86 1028.9
20260830090057 10 190 6.4 19.3 0.00 0.00 0.00 87 1028.8
20260830084601 11 197 8.0 17.7 0.00 0.00 0.00 86 1028.6
20260830083056 11 191 8.0 16.1 0.00 0.00 0.00 85 1028.5
20260830081549 11 195 8.0 17.7 0.00 0.00 0.00 84 1028.1
20260830074650 12 194 4.8 12.9 0.00 0.00 0.00 84 1028.1
20260830073108 12 205 8.0 12.9 0.00 0.00 0.00 84 1027.8
20260830071609 12 170 4.8 11.3 0.00 0.00 0.00 84 1027.7
20260830070058 12 230 4.8 9.7 0.00 0.00 0.00 84 1027.7
20260830064549 12 220 6.4 11.3 0.00 0.00 0.00 83 1027.4
20260830063047 12 221 4.8 12.9 0.00 0.00 0.00 83 1027.1
20260830061556 12 176 6.4 12.9 0.00 0.00 0.00 82 1027.2
20260830060056 12 210 4.8 11.3 0.00 0.00 0.00 84 1026.9
20260830054552 12 218 3.2 16.1 0.00 0.00 0.00 85 1026.8
20260830053055 12 192 3.2 8.0 0.00 0.00 0.00 82 1026.6
20260830051555 12 233 3.2 8.0 0.00 0.00 0.00 83 1026.5
20260830050105 12 221 3.2 9.7 0.00 0.00 0.00 83 1026.2
20260830044546 12 192 3.2 8.0 0.00 0.00 0.00 83 1026.2
20260830043107 12 206 4.8 6.4 0.00 0.00 0.00 82 1026.0
20260830041641 12 272 1.6 6.4 0.00 0.00 0.00 81 1025.8
20260830040054 12 238 1.6 4.8 0.00 0.00 0.00 82 1025.9
20260830034547 12 226 3.2 8.0 0.00 0.00 0.00 82 1025.9
20260830033047 12 213 1.6 6.4 0.00 0.00 0.00 82 1025.8